FENGYUN 1C DEB, 31053

Orbit data source: Space-Track

FENGYUN 1C DEB, 31053 is space debris in SSO originally from a launch on Mon, 10 May 1999 UTC launched from the Taiyaun Space Center, China (TSC). Fengyun 1C debris stems from the Chinese weather satellite Fengyun-1C, which was intentionally destroyed by a Chinese anti-satellite missile in 2007. This event dramatically increased the amount of space debris, with thousands of trackable fragments posing hazards to satellites and human spaceflight. The Fengyun 1C debris cloud has become a focal point in discussions about space sustainability and the need for international regulations to prevent the creation of new debris.

Loading next visibility...
Identifier
31053, 1999-025BEX
Orbit
SSO
Country
Flag of CNCN / PRC
Related business
Manufacturer
Unknown
Mission
Spacecraft
Bus & Motor
Unknown
Mass
Unknown
Launch date (UTC)
1999-05-10 (27 years ago)
Launch vehicle
Unknown
Launch site
Taiyaun Space Center, China (TSC)
Object type
Payload
Rocket body
Debris
Shape & HBR
Unknown shape, 0.1 m
Radar Cross Section
Small (<0.1 m²)

Expand to show TLE details & history
Last TLE update: 1 day ago

TLE from 1 day ago
0 FENGYUN 1C DEB
1 31053U 99025BEX 26070.28091752  .00003786  00000-0  27750-2 0  9993
2 31053  98.7963 191.1917 0307061 217.7870 140.1365 13.76274724946949
Epoch: 2026-03-11T06:44Z
TLE epoch observation values (Epoch: 2026-03-11T06:44:31.273Z)
Latitude
-0.00005°
Longitude
-78.88601°
Altitude
1,156.123 km
Speed
7.187 km/s
True Right ascension
12h 44m 46s
True Declination
0° 00' 00"
Sunlit
Object was in full shadow at epoch
Visualization orbit readout
Latitude
Unknown
Longitude
Unknown
Altitude
Unknown
Speed
Unknown
Apparent Right ascension
Unknown
Apparent Declination
Unknown
Sunlit
N/A
Visualization observer readout
Local Sidereal Time
22:47:29
Azimuth
Unknown
Elevation
Unknown
Doppler factor
Unknown
Orbital elements
Apogee altitude
1,200.113 km
Perigee altitude
748.581 km
Semi-major axis
7,352.484 km
Eccentricity
0.03071
Inclination
98.7963°
RAAN
191.1917°
Arg. of periapsis
217.787°
True anomaly
142.32668°
Mean anomaly
140.1365°
Eccentric anomaly
141.23799°
Mean motion
3.44264 °/min
Orbital period
104.57 mins
BSTAR
0.002775
Loading maneuver chart data...
Computing Atmospheric mass density...

Documentation

Showing up to 5 results
|